Flag for Japan Weather past 2 weeks in Nagano, Japan

Now
63 °F

Mild.


Feels Like: 63 °F
Forecast: 36 / 78 °F
Wind: 2 mph from Southwest

Location: Nagano

Current Time: Apr 26, 2015 at 10:56:52 AM

Latest Report: Apr 26, 2015 at 10:00 AM


Visibility: N/A

Pressure: 30.10 "Hg

Humidity: 40%

Dew point: 38 °F

Location of NaganoLocation

Historic Weather in Nagano — Graph

°F

Nagano temperature yesterday

Maximum temperature yesterday: 66 °F (at 1:00 PM)
Minimum temperature yesterday: 46 °F (at 5:00 AM)
Average temperature yesterday: 55 °F

Past Weeks' High & Low Weather Summary

 TemperatureHumidityPressure
High77 °F (Apr 24, 2:00 PM)97% (Apr 14, 6:00 PM)30.50 "Hg (Apr 14, 6:00 PM)
Low34 °F (Apr 18, 4:00 AM)13% (Apr 18, 5:00 PM)29.44 "Hg (Apr 20, 3:00 PM)
Average52 °F67%30.00 "Hg
* Reported Apr 11 9:00 AM — Apr 26 9:00 AM, Nagano, Weather by CustomWeather, © 2015

Note: Actual official high and low records may vary slightly from our data, if they occured in-between our weather recording intervals... More about our weather records

Advertising

Nagano weather history for previous 24 hours

 ConditionsComfort  
Time TempWeatherWind HumidityBarometerVisibility
9:00 AM
Sun, Apr 26
55 °FPassing clouds.2 mph51%30.15 "Hg6 mi
8:00 AM51 °FCool.2 mph53%30.17 "HgN/A
7:00 AM47 °FCool.3 mph55%30.19 "HgN/A
6:00 AM43 °FQuite cool.No wind70%30.20 "HgN/A
5:00 AM42 °FQuite cool.3 mph70%30.19 "HgN/A
4:00 AM42 °FQuite cool.2 mph67%30.17 "HgN/A
3:00 AM43 °FPassing clouds.1 mph64%30.17 "Hg9 mi
2:00 AM44 °FQuite cool.3 mph55%30.16 "HgN/A
1:00 AM46 °FCool.2 mph54%30.16 "HgN/A
12:00 AM48 °FCool.7 mph46%30.15 "HgN/A
11:00 PM
Sat, Apr 25
49 °FCool.5 mph46%30.14 "HgN/A
10:00 PM48 °FCool.5 mph51%30.15 "HgN/A
9:00 PM50 °FPassing clouds.2 mph41%30.15 "Hg12 mi
8:00 PM53 °FCool.3 mph35%30.11 "HgN/A
7:00 PM54 °FCool.9 mph37%30.10 "HgN/A
6:00 PM57 °FRefreshingly cool.9 mph31%30.07 "HgN/A
5:00 PM61 °FRefreshingly cool.7 mph24%30.04 "HgN/A
4:00 PM62 °FMild.16 mph28%30.03 "HgN/A
3:00 PM64 °FPassing clouds.14 mph37%30.01 "Hg9 mi
2:00 PM65 °FMild.13 mph30%30.01 "HgN/A
1:00 PM66 °FMild.9 mph31%30.01 "HgN/A
12:00 PM64 °FMild.13 mph30%30.02 "HgN/A
11:00 AM64 °FMild.12 mph41%30.03 "HgN/A
10:00 AM60 °FRefreshingly cool.6 mph51%30.07 "HgN/A
Weather by CustomWeather, © 2015

See weather overviewHow to use our weather pages